Temperature
20 20 20 20 18 18 19 20 20 20 20 20 20 19 18 18 18 17 17 17 17 17 17 17 17 17 16 16 16 16 16 16 17 17 17 16 17 17 17 17 17 17 17 17 17 17 17 17 17
21 20 20 20 18 18 19 20 20 21 21 21 20 19 18 17 17 17 17 17 17 17 17 17 17 17 17 16 16 16 16 16 16 16 16 16 16 16 16 17 17 17 17 17 17 17 17 17 17
21 21 20 18 19 19 20 20 21 21 21 21 20 19 18 18 17 17 17 17 17 17 17 17 17 17 16 16 16 16 16 16 16 16 16 16 16 16 16 16 17 17 17 17 17 17 17 17 17
21 21 20 18 20 20 20 20 21 21 21 20 20 18 18 18 18 17 17 17 17 17 17 17 17 17 16 16 16 16 16 16 16 16 16 16 16 16 16 16 17 17 17 16 17 17 17 17 17
21 21 19 19 20 21 20 21 21 21 20 20 19 18 18 18 18 18 17 18 18 17 17 17 17 17 17 16 16 16 16 16 16 16 16 16 16 16 16 16 16 16 16 16 16 16 16 17 17
21 19 18 19 20 21 21 21 21 20 20 19 19 18 17 18 18 18 18 18 18 17 17 17 17 17 17 16 16 16 16 16 16 16 16 16 16 16 16 16 16 16 16 16 16 16 16 16 17
21 18 19 20 20 20 21 22 21 20 20 20 19 18 17 18 18 18 18 18 18 18 17 17 17 17 16 16 16 16 16 16 16 16 16 16 16 16 16 16 16 16 16 16 16 16 16 16 16
22 18 20 19 20 20 22 22 21 21 20 20 19 18 17 18 18 18 18 18 18 18 17 17 17 17 17 16 16 16 16 16 16 16 16 16 16 16 16 16 16 16 16 16 16 16 16 16 16
22 18 19 20 20 20 21 21 21 21 20 20 19 19 19 18 18 18 18 18 18 17 17 17 17 17 17 17 16 16 16 16 16 16 16 16 16 16 16 16 16 16 16 16 16 16 16 16 16
22 18 20 21 21 21 21 21 21 20 19 19 19 19 19 18 18 18 18 18 18 17 17 17 17 17 17 17 16 16 16 16 16 16 16 16 16 16 16 16 16 16 16 16 16 16 16 16 16
22 20 21 22 22 22 21 21 21 19 18 19 19 19 18 18 18 18 18 18 18 18 18 17 17 17 17 17 17 16 16 16 16 16 16 16 16 16 16 16 16 16 16 16 16 16 16 16 16
22 22 22 22 23 22 22 21 20 20 20 20 20 19 19 18 18 18 18 18 18 18 18 17 17 17 17 17 17 17 16 16 16 16 16 16 16 16 16 16 16 16 16 16 16 16 16 16 16
21 22 23 23 22 22 22 21 20 20 20 20 19 19 19 19 19 19 19 18 18 18 18 18 17 17 17 17 17 17 16 16 16 16 16 16 16 16 16 16 16 16 16 16 16 16 16 16 16
22 22 22 22 22 22 21 20 20 19 20 20 19 19 19 19 19 19 18 18 18 18 18 18 18 17 17 17 17 17 16 16 16 16 16 16 16 16 16 16 16 16 16 16 16 16 16 15 15
23 21 21 21 22 21 21 20 19 20 20 19 19 19 19 19 19 19 19 19 18 18 18 18 18 17 17 17 17 17 17 16 16 16 16 16 16 16 16 16 16 16 16 16 15 15 15 15 15
22 20 20 21 21 21 21 19 19 20 20 19 19 19 19 19 19 19 19 19 18 18 18 18 18 17 17 17 17 17 17 17 16 16 16 16 16 16 16 16 16 15 15 15 15 15 15 15 15
20 19 20 20 21 21 20 19 19 20 20 19 19 19 19 19 19 19 19 19 19 18 18 18 18 17 17 17 17 17 16 16 16 16 16 16 16 16 16 16 16 15 15 15 15 15 15 15 15
20 20 20 20 21 20 19 19 19 20 19 19 19 19 19 19 19 19 19 19 18 18 18 18 18 17 17 17 17 17 16 16 16 16 16 16 16 16 16 16 16 15 15 15 15 15 15 15 15
21 21 20 20 21 20 19 19 19 19 19 19 18 18 19 19 19 19 19 19 18 18 18 18 17 17 17 17 17 16 16 16 16 16 16 16 16 16 16 16 15 15 15 15 15 15 15 15 15
21 20 20 20 21 21 19 19 19 19 19 19 19 19 19 19 19 19 19 19 18 18 18 17 17 17 17 17 17 16 16 16 16 16 16 16 16 16 16 16 15 15 15 15 15 15 15 15 15
21 20 20 20 20 20 19 18 18 19 19 19 19 19 19 19 19 19 19 18 18 18 18 17 17 17 17 17 17 16 16 16 16 16 16 16 16 16 16 15 15 15 15 15 15 15 15 15 15
20 21 21 21 19 18 19 17 18 18 18 18 19 19 19 19 19 19 18 18 18 18 18 17 17 17 17 17 17 16 16 16 16 16 16 16 16 16 15 15 15 15 15 15 15 15 15 15 15
21 21 21 20 19 18 18 17 17 17 18 18 18 19 19 19 19 19 19 19 18 18 18 17 17 17 17 17 17 16 16 16 16 16 16 16 16 15 15 15 15 15 15 15 15 15 15 15 15
21 20 19 18 17 17 18 17 17 17 18 18 18 19 19 19 19 19 19 19 18 18 18 17 17 17 17 17 16 16 16 16 16 16 16 16 16 15 15 15 15 15 15 15 15 15 15 15 15
20 17 17 17 16 17 18 18 18 18 19 19 19 19 19 19 19 19 19 18 18 18 18 18 17 17 17 17 16 16 16 16 16 16 16 16 16 16 16 15 15 15 15 15 15 15 15 15 15
20 18 17 17 17 17 18 18 18 19 20 20 20 19 19 19 19 19 19 19 18 18 18 18 17 17 17 17 16 16 16 16 16 16 16 16 16 16 16 15 15 15 15 15 15 15 15 14 14
20 18 18 17 18 17 18 18 19 19 19 19 19 19 19 19 19 19 19 19 18 18 18 18 17 17 17 17 17 16 16 16 16 16 16 16 16 16 16 15 15 15 15 15 15 15 14 14 14
20 19 17 17 17 17 18 18 17 18 18 18 18 19 19 19 19 19 19 19 18 18 18 18 17 17 17 17 17 17 17 16 16 16 16 16 16 16 16 16 15 15 15 15 15 15 14 14 14
20 19 18 16 16 16 17 17 19 18 18 18 18 19 19 19 19 19 19 19 19 18 18 18 17 17 17 17 17 17 17 16 16 16 16 16 16 16 16 16 15 15 15 15 15 15 14 14 14
20 20 18 17 17 16 16 17 20 19 19 19 19 19 19 19 19 19 19 19 19 18 18 18 18 17 17 17 17 17 17 16 16 16 16 16 16 16 16 16 15 15 15 15 15 15 14 14 14
Wind_Speed
3 2 2 3 4 5 3 2 3 4 4 5 9 10 8 6 4 5 2 7 8 6 7 8 9 9 9 9 10 10 10 10 10 10 11 11 11 11 11 11 11 11 11 11 10 10 10 9 10
1 1 3 4 5 4 2 1 4 4 6 7 8 8 7 6 5 6 5 8 9 8 8 9 9 9 9 10 10 10 10 10 10 10 11 11 11 11 11 11 11 10 10 10 10 9 9 9 9
1 1 3 4 3 4 3 2 4 5 5 4 5 6 5 4 4 4 7 10 8 8 8 9 10 9 9 9 9 9 9 9 10 10 10 10 10 10 10 10 10 10 10 9 9 9 8 8 9
2 4 4 5 5 2 5 4 5 6 6 5 6 5 4 3 4 6 10 10 9 7 8 9 10 9 8 9 9 9 9 9 9 9 9 9 9 9 9 9 10 10 9 8 8 8 8 8 8
3 4 5 4 3 2 3 4 5 6 4 5 6 6 4 3 8 11 10 10 10 7 8 10 10 9 9 8 9 9 9 9 8 8 8 9 9 9 9 9 8 8 8 8 8 7 7 7 8
3 4 5 3 3 3 3 5 7 8 6 6 7 6 3 2 8 9 9 8 9 8 8 9 10 10 9 9 8 8 8 8 8 8 8 7 7 8 8 7 7 7 7 7 7 7 7 7 8
3 4 3 3 3 3 3 4 6 6 6 4 5 5 3 2 5 8 8 8 8 8 8 7 8 9 9 8 8 8 7 7 7 7 7 6 6 6 6 6 7 7 7 7 7 6 7 7 8
4 4 3 2 4 1 1 3 4 6 5 5 5 7 5 5 5 6 6 6 6 6 6 6 7 7 6 6 6 6 6 5 5 5 5 5 4 5 5 5 5 6 6 6 6 6 7 8 8
4 5 2 1 4 2 3 6 4 5 6 4 3 4 6 8 6 6 4 3 4 6 5 5 5 6 6 5 4 4 3 3 3 3 3 3 2 3 3 4 5 5 5 5 5 6 7 8 9
5 4 1 1 4 4 5 6 5 5 6 5 5 5 7 7 7 7 5 5 5 5 6 5 5 5 5 4 3 2 1 1 1 1 2 2 2 2 3 4 4 4 4 4 4 6 7 7 7
4 4 2 2 4 6 5 5 4 7 4 5 8 9 8 7 6 6 5 5 5 6 6 7 5 5 5 3 3 2 1 1 1 2 3 4 3 3 3 3 4 4 4 4 5 6 6 6 6
4 2 3 3 4 5 5 4 5 4 5 7 10 11 9 8 7 6 6 4 4 5 5 6 5 5 5 5 3 3 2 2 2 2 4 6 4 3 2 2 3 4 4 4 4 4 5 6 7
4 2 3 4 6 6 7 6 6 3 5 7 9 9 8 7 6 5 5 5 5 6 5 6 6 6 4 4 2 3 3 2 3 3 4 5 4 2 2 2 3 4 5 5 5 5 5 5 6
4 3 3 4 5 3 7 4 5 4 7 9 9 8 7 7 6 5 5 5 5 6 5 5 6 6 5 3 2 2 3 4 5 4 5 6 6 4 3 3 3 4 6 7 6 6 5 5 5
4 3 2 1 3 3 6 3 2 5 8 8 8 7 6 5 6 6 6 6 6 6 5 5 6 5 5 4 3 3 4 5 4 4 6 7 7 6 5 4 3 4 7 8 7 7 6 5 5
3 3 1 2 3 4 6 2 3 6 9 8 7 6 5 5 5 5 6 6 6 6 5 5 6 6 5 4 3 3 4 5 4 5 7 7 8 8 7 4 3 6 8 7 4 4 5 5 5
2 1 1 2 1 3 4 3 3 6 8 7 7 6 5 4 4 5 6 7 6 6 6 5 6 6 5 5 4 5 5 5 5 6 7 7 7 8 8 5 4 7 6 4 4 4 4 4 4
2 1 1 2 2 3 3 4 4 6 8 8 7 7 6 6 6 5 6 6 6 6 6 6 5 5 5 4 4 4 4 4 5 5 6 8 8 8 8 6 6 7 5 4 4 5 4 3 3
3 2 1 3 3 2 3 4 6 7 6 7 6 7 6 6 5 4 6 6 6 6 6 6 5 4 4 3 3 3 2 1 2 3 6 8 8 8 7 5 5 4 4 4 4 4 5 3 2
1 2 0 1 1 1 2 3 5 6 8 9 9 8 8 6 4 4 5 6 6 6 6 5 5 4 4 3 3 3 2 1 1 3 5 7 8 7 6 5 4 4 4 4 4 4 3 1 1
1 3 2 1 2 3 2 3 3 3 4 6 8 8 8 9 8 6 6 6 6 6 6 6 5 4 4 4 4 4 3 3 3 3 2 4 6 7 6 6 5 4 3 3 3 3 4 1 1
1 2 2 2 2 2 1 2 5 3 3 6 6 7 8 8 7 7 7 7 8 7 6 6 5 4 4 5 5 5 4 3 1 1 1 2 4 5 6 6 5 4 3 3 2 2 2 3 1
3 2 1 1 2 1 1 2 5 1 3 6 7 7 7 9 9 8 8 9 8 7 7 6 5 4 4 5 5 6 4 3 2 2 2 2 2 3 5 6 5 4 3 3 2 3 3 2 2
1 4 5 5 4 2 3 3 4 3 6 6 7 7 6 8 8 8 8 7 6 6 6 6 6 4 5 5 5 6 6 5 4 3 2 1 1 1 3 5 5 4 3 3 2 2 3 2 3
5 6 4 5 4 4 2 2 5 6 5 7 8 8 7 6 8 8 8 8 7 6 6 6 6 5 4 5 5 6 6 6 6 4 3 3 1 1 0 3 3 3 3 3 3 3 2 2 2
1 6 5 2 2 4 3 1 4 3 2 4 6 7 6 6 6 9 10 10 9 8 7 7 6 5 5 6 5 5 6 4 4 4 4 4 3 2 2 3 3 3 4 4 4 3 2 2 2
3 2 5 5 1 1 3 2 4 3 3 3 4 6 6 7 7 8 9 10 9 9 8 8 8 6 5 5 5 5 5 5 4 4 4 3 3 3 4 4 3 3 3 3 4 2 2 2 2
4 4 5 3 1 1 3 2 3 3 2 2 4 6 6 6 6 7 8 10 9 9 7 7 7 7 5 5 5 5 5 5 4 4 4 4 3 3 4 4 3 3 3 3 3 2 2 3 2
1 1 3 3 4 4 2 5 4 7 6 6 6 7 7 7 8 8 8 8 8 7 6 6 6 5 4 4 4 4 4 4 4 4 5 4 4 4 5 4 4 3 3 3 3 2 3 3 2
4 4 5 3 2 3 3 6 4 5 5 6 6 6 7 8 7 7 7 7 7 7 6 6 6 6 5 5 4 5 4 4 4 4 4 4 4 4 5 5 4 3 3 3 3 3 2 3 2
Wind_Direction
302 346 88 67 58 56 66 46 78 53 60 60 72 80 82 64 84 129 171 141 135 133 121 111 107 104 99 96 92 89 87 83 80 81 82 82 84 83 82 81 80 83 86 87 88 86 84 81 79
10 47 69 57 79 79 58 48 79 81 127 121 83 79 79 75 85 111 122 140 137 132 126 119 112 106 101 98 94 91 91 89 86 84 84 82 84 83 82 81 79 83 88 88 88 86 84 79 74
326 117 77 62 79 125 135 180 103 90 90 91 77 57 72 105 110 122 147 146 136 127 128 126 119 111 104 100 97 94 94 93 90 89 89 86 85 83 83 82 78 78 84 87 87 87 83 77 71
61 42 54 67 76 98 151 168 123 102 66 56 93 68 56 74 118 134 142 141 133 133 138 136 127 118 110 106 104 99 98 99 97 94 95 91 87 87 85 82 80 80 82 84 85 83 80 72 68
77 75 61 66 68 62 98 116 105 91 75 69 90 92 61 32 107 127 139 142 140 148 148 144 134 127 119 111 107 107 102 101 101 100 97 94 90 89 87 85 83 82 84 85 83 80 75 67 67
56 70 82 91 90 71 86 108 99 94 105 101 96 102 90 105 117 137 145 148 150 154 157 153 144 136 128 120 115 112 109 107 106 105 103 100 96 93 91 88 86 85 82 81 79 73 69 66 67
98 84 103 126 104 73 116 108 103 114 116 119 118 101 122 160 150 145 146 148 150 155 153 159 156 147 140 134 130 125 122 119 116 112 109 108 106 101 97 94 91 87 82 78 77 73 68 63 65
129 96 70 99 112 101 116 96 103 101 98 114 112 128 162 202 170 136 136 139 149 153 155 160 169 163 157 151 147 139 134 129 127 120 119 114 106 103 104 100 98 92 84 79 78 74 63 59 67
90 73 80 148 139 140 104 95 76 68 83 65 76 137 167 165 138 121 119 120 148 158 162 165 170 175 174 174 163 148 138 131 130 123 127 117 92 89 103 109 104 97 88 83 78 72 63 63 64
85 102 152 177 152 137 114 112 119 85 80 77 78 92 121 129 130 136 148 158 158 165 174 176 179 187 188 184 149 152 127 110 128 161 146 144 134 127 109 103 97 87 85 81 70 63 64 65 62
107 131 121 76 111 115 108 96 99 118 110 152 146 143 139 136 140 150 165 168 167 166 163 167 169 171 169 153 136 136 111 79 84 131 145 136 130 111 92 77 65 59 65 59 53 52 55 66 73
95 103 121 120 106 101 109 110 99 123 160 162 154 149 146 149 157 166 167 161 142 132 140 151 151 140 141 132 126 127 109 77 69 104 120 118 113 106 108 91 69 64 69 70 63 64 66 74 80
97 106 90 105 95 103 101 103 116 135 144 140 139 139 148 155 160 169 161 146 134 128 129 135 139 133 129 114 109 97 87 77 88 99 113 123 116 112 106 97 87 82 84 87 81 77 77 75 72
144 110 86 107 107 108 110 106 105 160 146 141 144 149 157 162 167 157 144 138 138 134 135 135 127 126 119 112 107 102 98 83 77 80 93 115 115 112 102 97 88 82 85 89 87 85 79 72 73
113 92 34 99 128 147 113 68 164 169 142 143 152 155 157 170 168 161 165 159 151 143 135 131 127 115 112 109 103 97 94 86 81 76 83 100 105 106 102 91 82 85 91 90 86 76 74 71 67
70 73 23 269 161 163 122 178 216 165 146 153 156 158 166 178 174 167 155 155 152 142 128 124 130 117 108 100 92 82 79 79 77 76 78 89 96 103 98 91 86 94 96 93 88 80 76 68 65
35 116 224 285 197 149 138 193 211 166 155 166 168 175 177 180 179 167 151 153 149 145 131 118 119 117 110 100 91 79 74 69 73 77 73 82 92 99 99 95 95 99 91 84 93 78 87 82 71
230 205 229 228 221 148 155 195 197 178 171 177 177 180 181 185 192 172 154 146 142 136 127 123 118 113 106 93 79 67 57 53 68 73 75 85 89 95 98 95 92 95 85 76 83 86 74 81 82
182 172 225 247 202 145 187 203 205 192 179 177 179 189 194 204 203 165 150 138 136 131 123 127 126 124 114 102 95 90 78 56 56 67 78 85 89 94 99 98 93 91 95 99 102 96 82 73 82
143 136 306 308 284 154 189 234 229 198 194 187 184 190 195 197 182 163 148 142 146 145 136 135 142 136 129 126 127 126 124 100 77 59 63 76 83 89 104 106 106 102 100 91 93 102 98 74 84
91 154 190 222 20 39 84 335 280 240 195 189 189 185 187 183 178 175 161 155 150 152 156 154 154 147 138 126 106 86 69 51 46 47 43 52 80 85 97 107 108 104 109 116 112 119 122 120 14
272 238 171 149 95 284 123 276 279 237 205 200 197 188 191 189 179 172 168 166 166 166 159 151 153 155 147 132 126 126 129 131 165 148 98 58 75 84 93 102 111 110 109 120 123 114 115 125 84
215 221 114 141 139 354 313 170 289 234 210 219 206 198 198 190 182 177 177 173 171 165 158 157 150 153 156 148 147 140 137 147 141 105 93 67 54 77 90 101 108 108 104 112 101 93 88 105 120
113 42 29 45 70 340 247 172 277 229 216 211 203 196 195 187 183 179 173 163 161 159 154 152 148 154 156 150 149 150 149 148 133 126 137 110 49 45 78 101 106 110 107 110 115 111 103 97 95
64 71 31 8 13 273 269 156 254 250 220 194 189 192 189 175 175 175 171 168 167 165 163 159 157 163 166 158 163 165 163 159 155 165 167 157 135 115 150 110 110 107 115 115 110 107 102 103 99
157 129 147 187 241 291 334 216 267 273 221 173 170 172 173 175 178 182 182 179 178 175 170 166 166 172 177 171 178 178 170 166 169 175 168 169 176 186 155 125 122 120 118 108 99 96 102 102 104
129 163 174 147 195 294 310 324 333 16 53 114 144 153 176 182 183 187 184 182 180 178 178 174 170 172 180 176 178 178 177 176 178 179 171 174 183 164 141 132 128 118 112 107 103 97 94 101 101
153 156 94 109 146 292 308 272 241 252 227 194 171 177 190 187 189 188 185 186 185 184 180 173 171 176 181 173 177 176 180 184 179 163 166 170 171 151 140 142 138 126 109 106 108 104 99 96 79
104 96 115 131 158 157 253 277 235 206 205 197 197 193 188 187 194 191 187 185 181 176 174 170 169 170 170 173 176 169 173 167 162 160 172 170 164 153 149 154 148 144 137 123 117 119 116 107 83
169 166 142 146 235 164 175 268 274 194 200 190 194 203 194 189 185 183 181 175 170 174 180 182 178 178 181 177 171 171 168 158 156 168 173 162 159 154 151 150 150 157 154 138 133 137 133 138 139
Height
1526 1525 1525 1526 1528 1537 1540 1536 1530 1529 1529 1530 1529 1530 1533 1537 1540 1547 1544 1543 1544 1543 1543 1542 1541 1541 1540 1540 1540 1539 1539 1538 1538 1538 1538 1538 1537 1537 1537 1537 1537 1536 1537 1537 1537 1537 1537 1537 1537
1526 1526 1527 1526 1534 1547 1543 1534 1531 1530 1531 1531 1531 1533 1535 1539 1540 1542 1543 1544 1545 1544 1543 1543 1542 1542 1541 1541 1541 1540 1540 1539 1539 1539 1539 1538 1538 1538 1538 1538 1538 1537 1537 1537 1538 1538 1538 1538 1538
1526 1526 1527 1529 1536 1543 1541 1533 1531 1530 1530 1530 1533 1535 1538 1540 1541 1542 1543 1545 1545 1545 1544 1544 1543 1543 1542 1542 1541 1541 1541 1540 1540 1540 1539 1539 1539 1539 1539 1539 1538 1539 1538 1538 1539 1539 1539 1539 1539
1527 1527 1528 1534 1538 1535 1533 1531 1530 1531 1532 1532 1534 1538 1540 1542 1542 1543 1545 1546 1546 1546 1546 1545 1544 1544 1543 1543 1542 1542 1542 1541 1541 1541 1540 1540 1540 1540 1540 1540 1539 1539 1539 1539 1540 1540 1540 1540 1540
1527 1527 1533 1539 1537 1533 1531 1530 1531 1531 1533 1535 1535 1540 1542 1544 1544 1545 1546 1547 1547 1547 1547 1546 1546 1545 1545 1544 1543 1543 1543 1543 1542 1542 1542 1541 1541 1541 1541 1541 1541 1541 1541 1540 1541 1541 1541 1541 1541
1528 1529 1541 1545 1539 1534 1532 1531 1532 1533 1536 1537 1538 1541 1544 1545 1545 1546 1547 1548 1548 1548 1548 1547 1547 1547 1546 1546 1545 1545 1544 1544 1544 1544 1543 1543 1542 1542 1542 1542 1542 1542 1542 1542 1542 1542 1542 1542 1542
1529 1533 1540 1541 1540 1536 1533 1532 1533 1534 1536 1538 1539 1542 1545 1546 1546 1547 1548 1548 1549 1549 1549 1549 1549 1548 1548 1548 1547 1547 1546 1546 1546 1545 1545 1544 1544 1544 1543 1543 1543 1543 1543 1543 1543 1543 1543 1543 1543
1528 1532 1539 1540 1540 1538 1533 1533 1535 1535 1537 1539 1539 1541 1544 1546 1547 1548 1549 1549 1550 1550 1550 1550 1550 1550 1549 1549 1549 1549 1548 1548 1547 1547 1546 1546 1546 1545 1545 1545 1544 1544 1544 1544 1544 1544 1544 1544 1544
1528 1537 1543 1539 1538 1537 1534 1534 1537 1538 1538 1539 1540 1541 1543 1545 1547 1548 1549 1550 1550 1551 1551 1551 1551 1551 1551 1550 1550 1550 1550 1549 1549 1548 1548 1548 1547 1547 1547 1546 1546 1546 1546 1546 1546 1546 1545 1545 1545
1529 1540 1538 1533 1533 1534 1534 1535 1537 1539 1540 1541 1542 1543 1544 1546 1547 1548 1549 1550 1550 1551 1551 1552 1552 1552 1552 1552 1552 1552 1551 1551 1550 1550 1550 1550 1549 1549 1549 1548 1548 1547 1547 1547 1547 1547 1547 1547 1547
1530 1535 1533 1532 1532 1532 1534 1536 1537 1539 1542 1542 1542 1543 1545 1546 1548 1549 1549 1550 1550 1551 1552 1552 1553 1553 1553 1553 1553 1553 1552 1552 1551 1551 1551 1551 1551 1551 1550 1550 1550 1549 1549 1548 1548 1548 1548 1548 1548
1531 1532 1532 1533 1532 1533 1535 1536 1539 1539 1541 1542 1542 1543 1545 1546 1548 1549 1549 1550 1551 1552 1552 1553 1553 1554 1554 1554 1554 1554 1553 1553 1553 1553 1552 1552 1552 1552 1552 1551 1551 1551 1550 1550 1550 1550 1549 1549 1549
1532 1532 1532 1533 1533 1534 1535 1537 1539 1540 1541 1542 1543 1544 1545 1547 1548 1549 1550 1551 1552 1552 1553 1553 1554 1554 1554 1554 1554 1555 1554 1554 1554 1554 1554 1554 1554 1553 1553 1553 1552 1552 1552 1551 1551 1551 1551 1550 1550
1532 1532 1533 1533 1534 1535 1537 1539 1540 1541 1541 1543 1544 1545 1546 1547 1548 1549 1550 1551 1552 1553 1553 1554 1554 1555 1555 1555 1555 1555 1555 1555 1555 1555 1555 1555 1555 1554 1554 1554 1554 1553 1553 1553 1552 1552 1552 1552 1552
1532 1534 1535 1534 1534 1536 1538 1542 1541 1541 1542 1543 1544 1545 1546 1547 1548 1549 1550 1551 1552 1553 1554 1554 1555 1555 1555 1556 1556 1556 1556 1556 1556 1556 1556 1556 1556 1556 1555 1555 1555 1555 1554 1554 1554 1553 1553 1553 1553
1534 1539 1543 1537 1534 1536 1541 1548 1541 1541 1542 1543 1544 1545 1546 1547 1548 1549 1550 1551 1552 1553 1554 1554 1555 1556 1556 1556 1557 1557 1557 1557 1557 1557 1557 1557 1557 1557 1557 1556 1556 1556 1556 1556 1555 1555 1554 1554 1554
1541 1547 1546 1540 1534 1535 1539 1544 1540 1540 1541 1543 1544 1545 1546 1547 1548 1549 1550 1551 1552 1553 1554 1554 1555 1556 1557 1557 1557 1558 1558 1558 1558 1558 1558 1558 1558 1558 1558 1558 1557 1557 1557 1557 1556 1556 1556 1555 1555
1547 1545 1544 1542 1535 1536 1540 1541 1539 1540 1540 1542 1543 1544 1545 1546 1547 1548 1550 1551 1552 1553 1554 1555 1556 1556 1557 1558 1558 1558 1558 1559 1559 1559 1559 1559 1559 1559 1559 1559 1558 1558 1558 1558 1557 1557 1557 1557 1556
1537 1540 1543 1539 1533 1536 1540 1540 1538 1538 1540 1541 1542 1543 1544 1545 1547 1548 1550 1551 1552 1553 1554 1555 1556 1556 1557 1558 1558 1558 1559 1559 1559 1560 1560 1560 1560 1560 1560 1560 1559 1559 1559 1559 1559 1559 1558 1558 1558
1535 1541 1542 1538 1534 1536 1540 1540 1537 1537 1537 1538 1539 1541 1542 1544 1546 1548 1549 1550 1552 1553 1554 1555 1556 1557 1557 1558 1558 1559 1559 1560 1560 1560 1560 1560 1560 1560 1561 1561 1560 1560 1560 1560 1560 1560 1559 1560 1560
1536 1540 1541 1541 1537 1536 1540 1544 1540 1536 1536 1537 1538 1539 1541 1542 1544 1546 1548 1550 1551 1552 1554 1555 1556 1557 1558 1558 1559 1559 1560 1560 1560 1561 1561 1561 1561 1561 1561 1561 1561 1561 1561 1561 1561 1561 1560 1560 1560
1541 1533 1534 1536 1544 1550 1545 1559 1544 1537 1536 1536 1537 1538 1539 1541 1543 1545 1547 1548 1550 1552 1553 1555 1556 1557 1558 1559 1559 1559 1560 1560 1561 1561 1561 1562 1562 1562 1562 1562 1562 1562 1562 1561 1561 1561 1561 1561 1561
1534 1530 1533 1536 1542 1549 1548 1555 1550 1539 1539 1536 1535 1536 1538 1539 1541 1543 1545 1547 1549 1551 1552 1554 1555 1556 1557 1558 1559 1560 1560 1560 1561 1562 1562 1562 1562 1563 1563 1562 1562 1562 1562 1562 1562 1562 1562 1562 1561
1529 1533 1537 1542 1548 1560 1550 1555 1553 1543 1536 1533 1533 1534 1536 1538 1540 1542 1544 1547 1549 1550 1552 1553 1555 1556 1557 1558 1559 1560 1560 1561 1561 1562 1562 1562 1563 1563 1563 1563 1563 1563 1563 1563 1563 1562 1562 1562 1562
1533 1548 1562 1563 1567 1564 1546 1550 1548 1532 1529 1528 1530 1532 1534 1536 1539 1541 1543 1545 1547 1549 1551 1552 1554 1555 1556 1557 1558 1559 1560 1561 1561 1562 1562 1563 1563 1563 1563 1564 1563 1563 1563 1563 1563 1563 1562 1562 1562
1537 1545 1564 1571 1570 1562 1547 1550 1540 1528 1527 1526 1528 1530 1533 1535 1537 1539 1541 1544 1546 1548 1550 1551 1552 1554 1555 1556 1557 1559 1560 1560 1561 1562 1562 1563 1563 1564 1564 1564 1564 1564 1564 1563 1563 1563 1563 1563 1562
1537 1543 1544 1556 1558 1563 1555 1545 1536 1529 1528 1528 1528 1530 1532 1534 1536 1538 1540 1542 1544 1546 1548 1550 1551 1553 1554 1555 1557 1558 1559 1560 1561 1562 1562 1563 1563 1564 1564 1564 1564 1564 1564 1564 1564 1563 1563 1563 1562
1531 1536 1548 1555 1565 1569 1559 1552 1548 1536 1532 1530 1529 1530 1531 1532 1534 1537 1539 1541 1543 1545 1547 1549 1550 1552 1553 1554 1556 1557 1558 1559 1560 1561 1562 1563 1563 1564 1564 1564 1564 1564 1564 1564 1564 1563 1563 1563 1563
1535 1538 1543 1553 1556 1566 1567 1557 1532 1531 1529 1529 1529 1529 1530 1531 1533 1535 1537 1539 1542 1544 1546 1548 1549 1551 1552 1553 1555 1556 1557 1558 1559 1560 1561 1562 1563 1563 1564 1564 1564 1564 1564 1564 1564 1564 1563 1563 1563
1529 1534 1542 1554 1555 1556 1562 1555 1526 1526 1526 1527 1527 1528 1529 1530 1532 1534 1536 1539 1541 1543 1545 1546 1548 1549 1551 1552 1554 1555 1556 1557 1558 1559 1560 1561 1562 1563 1563 1564 1564 1564 1564 1564 1564 1564 1563 1563 1563